| time (UTC) | temp C | wind direction | speed KPH | gust KPH | rain 1hr cm | rain 24hr cm | rain mn cm | humidity % | barometer mb |
| 20260506081735 | 6 | 319 | 3.2 | 3.2 | 0.00 | 0.23 | 0.23 | 99 | 1063.2 |
| 20260506080731 | 6 | 322 | 1.6 | 3.2 | 0.00 | 0.23 | 0.23 | 99 | 1062.6 |
| 20260506072725 | 6 | 287 | 0.0 | 0.0 | 0.00 | 0.20 | 0.20 | 99 | 1062.8 |
| 20260506071720 | 6 | 79 | 4.8 | 4.8 | 0.00 | 0.20 | 0.20 | 99 | 1062.8 |
| 20260506070720 | 6 | 95 | 4.8 | 4.8 | 0.30 | 0.20 | 0.20 | 99 | 1063.2 |
| 20260506061708 | 7 | 289 | 0.0 | 0.0 | 0.00 | 0.15 | 0.15 | 99 | 1063.4 |
| 20260506060704 | 7 | 312 | 1.6 | 1.6 | 0.00 | 0.15 | 0.15 | 99 | 1063.7 |
| 20260506050654 | 7 | 283 | 0.0 | 1.6 | 0.00 | 0.15 | 0.15 | 99 | 1064.3 |
| 20260506044648 | 8 | 284 | 0.0 | 0.0 | 0.18 | 0.13 | 0.13 | 99 | 1064.2 |
| 20260506043648 | 8 | 274 | 0.0 | 0.0 | 0.13 | 0.10 | 0.10 | 99 | 1064.3 |
| 20260506042645 | 7 | 276 | 0.0 | 0.0 | 0.00 | 0.08 | 0.08 | 99 | 1064.7 |
| 20260506041641 | 8 | 307 | 3.2 | 3.2 | 0.13 | 0.05 | 0.05 | 99 | 1064.3 |
| 20260506040641 | 8 | 278 | 0.0 | 0.0 | 0.18 | 0.03 | 0.03 | 99 | 1064.7 |
| 20260506035641 | 8 | 278 | 0.0 | 1.6 | 0.13 | 0.97 | 0.97 | 99 | 1064.6 |
| 20260506034640 | 8 | 285 | 0.0 | 0.0 | 0.18 | 0.94 | 0.94 | 99 | 1064.1 |
| 20260506033640 | 8 | 315 | 3.2 | 3.2 | 0.00 | 0.91 | 0.91 | 99 | 1064.6 |
| 20260506032640 | 8 | 269 | 0.0 | 0.0 | 0.00 | 0.91 | 0.91 | 99 | 1064.7 |
| 20260506031639 | 8 | 294 | 1.6 | 1.6 | 0.48 | 0.89 | 0.89 | 99 | 1064.1 |
| 20260506030635 | 8 | 270 | 3.2 | 3.2 | 0.18 | 0.81 | 0.81 | 99 | 1064.3 |
| 20260506025634 | 8 | 294 | 0.0 | 0.0 | 0.00 | 0.79 | 0.79 | 99 | 1063.7 |
| 20260506024634 | 8 | 287 | 0.0 | 0.0 | 0.00 | 0.79 | 0.79 | 99 | 1063.6 |
| 20260506023632 | 8 | 277 | 0.0 | 0.0 | 0.00 | 0.79 | 0.79 | 99 | 1063.5 |
| 20260506022632 | 8 | 285 | 0.0 | 0.0 | 0.00 | 0.79 | 0.79 | 99 | 1064.2 |
| 20260506021627 | 9 | 307 | 0.0 | 0.0 | 0.13 | 0.79 | 0.79 | 99 | 1063.9 |
| 20260506020627 | 9 | 276 | 0.0 | 0.0 | 0.00 | 0.76 | 0.76 | 99 | 1064.5 |
| 20260506015622 | 9 | 291 | 0.0 | 0.0 | 0.00 | 0.76 | 0.76 | 99 | 1064.1 |
| 20260506014617 | 9 | 295 | 0.0 | 0.0 | 0.18 | 0.76 | 0.76 | 99 | 1064.1 |
| 20260506013617 | 9 | 279 | 0.0 | 0.0 | 0.30 | 0.74 | 0.74 | 99 | 1064.1 |
| 20260506012615 | 9 | 295 | 1.6 | 1.6 | 0.13 | 0.69 | 0.69 | 99 | 1064.1 |
| 20260506011615 | 10 | 321 | 1.6 | 3.2 | 0.18 | 0.66 | 0.66 | 98 | 1063.5 |
| 20260506010611 | 10 | 316 | 1.6 | 3.2 | 0.61 | 0.64 | 0.64 | 95 | 1063.6 |
| 20260506005610 | 11 | 321 | 4.8 | 4.8 | 0.00 | 0.51 | 0.51 | 88 | 1063.5 |
| 20260506004609 | 12 | 324 | 4.8 | 4.8 | 0.00 | 0.51 | 0.51 | 86 | 1063.0 |
| 20260506003608 | 12 | 321 | 4.8 | 8.0 | 0.00 | 0.51 | 0.51 | 85 | 1062.9 |
| 20260506002606 | 12 | 282 | 1.6 | 1.6 | 0.00 | 0.51 | 0.51 | 91 | 1062.9 |
| 20260506001604 | 12 | 276 | 1.6 | 1.6 | 0.00 | 0.51 | 0.51 | 93 | 1062.5 |
| 20260506000559 | 12 | 300 | 3.2 | 3.2 | 0.00 | 0.51 | 0.51 | 92 | 1062.2 |
| 20260505235554 | 12 | 296 | 4.8 | 8.0 | 0.00 | 0.51 | 0.51 | 99 | 1062.3 |
| 20260505234554 | 12 | 285 | 1.6 | 1.6 | 0.00 | 0.51 | 0.51 | 99 | 1062.1 |
| 20260505233554 | 12 | 257 | 1.6 | 3.2 | 0.00 | 0.51 | 0.51 | 99 | 1062.0 |
| 20260505232549 | 12 | 265 | 1.6 | 1.6 | 0.00 | 0.51 | 0.51 | 99 | 1061.6 |
| 20260505231548 | 12 | 266 | 0.0 | 0.0 | 0.00 | 0.51 | 0.51 | 99 | 1061.2 |
| 20260505230544 | 12 | 260 | 0.0 | 0.0 | 0.00 | 0.51 | 0.51 | 99 | 1061.1 |
| 20260505225543 | 12 | 266 | 0.0 | 0.0 | 0.00 | 0.51 | 0.51 | 99 | 1061.2 |
| 20260505224542 | 12 | 272 | 0.0 | 0.0 | 0.66 | 0.51 | 0.51 | 99 | 1061.2 |
| 20260505223542 | 13 | 255 | 4.8 | 4.8 | 0.61 | 0.41 | 0.41 | 99 | 1061.4 |
| 20260505222540 | 14 | 280 | 1.6 | 3.2 | 1.19 | 0.30 | 0.30 | 97 | 1061.4 |
| 20260505221539 | 15 | 267 | 1.6 | 1.6 | 0.00 | 0.10 | 0.10 | 91 | 1060.8 |
| 20260505220539 | 17 | 240 | 6.4 | 8.0 | 0.00 | 0.10 | 0.10 | 80 | 1060.3 |
| 20260505215535 | 17 | 260 | 3.2 | 3.2 | 0.00 | 0.10 | 0.10 | 78 | 1060.1 |
| 20260505214530 | 17 | 320 | 3.2 | 3.2 | 0.00 | 0.10 | 0.10 | 77 | 1060.0 |
| 20260505213530 | 18 | 250 | 4.8 | 4.8 | 0.00 | 0.10 | 0.10 | 76 | 1060.2 |
| 20260505212528 | 18 | 251 | 3.2 | 3.2 | 0.00 | 0.10 | 0.10 | 76 | 1059.9 |
| 20260505211523 | 17 | 291 | 1.6 | 1.6 | 0.00 | 0.10 | 0.10 | 77 | 1059.7 |
| 20260505210522 | 17 | 289 | 3.2 | 3.2 | 0.00 | 0.10 | 0.10 | 77 | 1059.8 |
| 20260505205517 | 17 | 268 | 1.6 | 1.6 | 0.00 | 0.10 | 0.10 | 77 | 1060.1 |
| 20260505204517 | 17 | 256 | 4.8 | 4.8 | 0.00 | 0.10 | 0.10 | 78 | 1060.2 |
| 20260505203517 | 17 | 279 | 4.8 | 4.8 | 0.00 | 0.10 | 0.10 | 78 | 1060.2 |
| 20260505202516 | 17 | 255 | 4.8 | 4.8 | 0.00 | 0.10 | 0.10 | 81 | 1060.1 |
| 20260505201515 | 17 | 252 | 4.8 | 4.8 | 0.00 | 0.10 | 0.10 | 82 | 1059.8 |
| 20260505200510 | 17 | 253 | 4.8 | 4.8 | 0.00 | 0.10 | 0.10 | 84 | 1060.1 |
| 20260505195509 | 16 | 264 | 3.2 | 3.2 | 0.00 | 0.10 | 0.10 | 84 | 1060.0 |
| 20260505194510 | 15 | 248 | 4.8 | 4.8 | 0.00 | 0.10 | 0.10 | 85 | 1060.2 |
| 20260505193507 | 15 | 232 | 12.9 | 14.5 | 0.00 | 0.10 | 0.10 | 87 | 1060.6 |
| 20260505192503 | 15 | 259 | 9.7 | 16.1 | 0.00 | 0.10 | 0.10 | 89 | 1060.6 |
| 20260505191458 | 15 | 254 | 3.2 | 4.8 | 0.00 | 0.10 | 0.10 | 88 | 1060.2 |
| 20260505190456 | 16 | 313 | 4.8 | 4.8 | 0.00 | 0.10 | 0.10 | 81 | 1060.2 |
| 20260505185455 | 17 | 300 | 1.6 | 3.2 | 0.00 | 0.10 | 0.10 | 79 | 1059.8 |
| 20260505184454 | 16 | 259 | 6.4 | 8.0 | 0.00 | 0.10 | 0.10 | 79 | 1059.8 |
| 20260505183454 | 18 | 273 | 4.8 | 8.0 | 0.00 | 0.10 | 0.10 | 73 | 1059.8 |
| 20260505182453 | 19 | 266 | 8.0 | 9.7 | 0.00 | 0.10 | 0.10 | 65 | 1059.0 |
| 20260505181453 | 20 | 241 | 8.0 | 9.7 | 0.00 | 0.10 | 0.10 | 64 | 1059.1 |
| 20260505180452 | 20 | 248 | 1.6 | 3.2 | 0.00 | 0.10 | 0.10 | 65 | 1058.9 |
| 20260505175450 | 19 | 247 | 6.4 | 9.7 | 0.00 | 0.10 | 0.10 | 65 | 1058.9 |
| 20260505174450 | 19 | 261 | 6.4 | 8.0 | 0.00 | 0.10 | 0.10 | 66 | 1059.0 |
| 20260505173449 | 20 | 246 | 8.0 | 9.7 | 0.00 | 0.10 | 0.10 | 64 | 1059.0 |
| 20260505172445 | 20 | 245 | 1.6 | 1.6 | 0.00 | 0.10 | 0.10 | 65 | 1059.2 |
| 20260505171441 | 20 | 253 | 8.0 | 9.7 | 0.00 | 0.10 | 0.10 | 64 | 1058.9 |
| 20260505170440 | 20 | 233 | 11.3 | 14.5 | 0.00 | 0.10 | 0.10 | 63 | 1058.9 |
| 20260505165437 | 20 | 229 | 11.3 | 12.9 | 0.00 | 0.10 | 0.10 | 63 | 1058.7 |
| 20260505164436 | 20 | 251 | 4.8 | 4.8 | 0.00 | 0.10 | 0.10 | 64 | 1058.7 |
| 20260505163432 | 20 | 254 | 4.8 | 4.8 | 0.00 | 0.10 | 0.10 | 64 | 1058.8 |
| 20260505162432 | 20 | 252 | 9.7 | 11.3 | 0.00 | 0.10 | 0.10 | 64 | 1058.9 |
| 20260505161432 | 20 | 236 | 17.7 | 20.9 | 0.00 | 0.10 | 0.10 | 63 | 1058.9 |
| 20260505160428 | 20 | 233 | 17.7 | 22.5 | 0.00 | 0.10 | 0.10 | 63 | 1058.9 |
| 20260505152425 | 20 | 263 | 8.0 | 11.3 | 0.00 | 0.10 | 0.10 | 64 | 1059.1 |
| 20260505151421 | 20 | 263 | 12.9 | 16.1 | 0.00 | 0.10 | 0.10 | 64 | 1059.2 |
| 20260505150421 | 20 | 242 | 16.1 | 20.9 | 0.00 | 0.10 | 0.10 | 65 | 1059.0 |
| 20260505140409 | 18 | 265 | 6.4 | 9.7 | 0.00 | 0.10 | 0.10 | 71 | 1059.2 |
| 20260505124355 | 15 | 274 | 4.8 | 8.0 | 0.00 | 0.10 | 0.10 | 82 | 1059.5 |
| 20260505123352 | 14 | 250 | 4.8 | 4.8 | 0.00 | 0.10 | 0.10 | 83 | 1059.7 |
| 20260505122352 | 13 | 273 | 1.6 | 3.2 | 0.00 | 0.10 | 0.10 | 85 | 1059.7 |
| 20260505121351 | 13 | 261 | 4.8 | 4.8 | 0.00 | 0.10 | 0.10 | 86 | 1059.5 |
| 20260505120349 | 13 | 269 | 6.4 | 8.0 | 0.00 | 0.10 | 0.10 | 87 | 1059.6 |
| 20260505115345 | 13 | 261 | 6.4 | 8.0 | 0.00 | 0.10 | 0.10 | 87 | 1059.7 |
| 20260505114345 | 13 | 261 | 4.8 | 4.8 | 0.00 | 0.10 | 0.10 | 87 | 1059.3 |
| 20260505113344 | 13 | 260 | 3.2 | 3.2 | 0.00 | 0.10 | 0.10 | 88 | 1059.7 |
| 20260505112343 | 12 | 258 | 3.2 | 3.2 | 0.00 | 0.10 | 0.10 | 98 | 1059.0 |
| 20260505111340 | 11 | 252 | 0.0 | 1.6 | 0.00 | 0.10 | 0.10 | 99 | 1059.3 |
| 20260505110339 | 11 | 250 | 1.6 | 3.2 | 0.00 | 0.10 | 0.10 | 99 | 1059.6 |
| 20260505101333 | 11 | 265 | 1.6 | 1.6 | 0.00 | 0.10 | 0.10 | 99 | 1059.3 |
| 20260505100332 | 11 | 225 | 1.6 | 1.6 | 0.00 | 0.10 | 0.10 | 99 | 1059.3 |
| 20260505095331 | 11 | 245 | 0.0 | 0.0 | 0.00 | 0.08 | 0.08 | 99 | 1059.2 |
| 20260505094330 | 11 | 243 | 1.6 | 1.6 | 0.43 | 0.08 | 0.08 | 96 | 1059.7 |
| 20260505093329 | 12 | 265 | 6.4 | 9.7 | 0.00 | 0.00 | 0.00 | 87 | 1059.9 |
| 20260505092324 | 12 | 267 | 3.2 | 3.2 | 0.00 | 0.00 | 0.00 | 84 | 1059.5 |
| 20260505091319 | 11 | 267 | 1.6 | 3.2 | 0.00 | 0.00 | 0.00 | 86 | 1059.7 |
| 20260505090315 | 10 | 272 | 0.0 | 1.6 | 0.00 | 0.00 | 0.00 | 93 | 1059.5 |
| 20260505085310 | 10 | 269 | 1.6 | 1.6 | 0.00 | 0.00 | 0.00 | 95 | 1059.3 |
| 20260505084306 | 11 | 266 | 1.6 | 1.6 | 0.00 | 0.00 | 0.00 | 92 | 1059.7 |
| 20260505083306 | 11 | 269 | 0.0 | 0.0 | 0.00 | 0.00 | 0.00 | 88 | 1059.9 |